| time (UTC) | temp F | wind direction | speed MPH | gust MPH | rain 1hr in | rain 24hr in | rain mn in | humidity % | barometer mb |
| 20260906183033 | 73 | 281 | 2.0 | 7.0 | 0.00 | 0.35 | 0.07 | 81 | 1021.8 |
| 20260906182517 | 73 | 281 | 0.0 | 7.0 | 0.00 | 0.35 | 0.07 | 82 | 1022.0 |
| 20260906182023 | 73 | 289 | 2.0 | 8.0 | 0.00 | 0.35 | 0.07 | 82 | 1021.9 |
| 20260906181510 | 73 | 292 | 2.0 | 8.0 | 0.00 | 0.35 | 0.07 | 82 | 1021.9 |
| 20260906181019 | 73 | 281 | 1.0 | 7.0 | 0.00 | 0.35 | 0.07 | 82 | 1021.9 |
| 20260906180528 | 73 | 281 | 2.0 | 7.0 | 0.00 | 0.35 | 0.07 | 82 | 1021.9 |
| 20260906180036 | 73 | 292 | 3.0 | 5.0 | 0.00 | 0.35 | 0.07 | 82 | 1021.7 |
| 20260906175523 | 73 | 284 | 1.0 | 5.0 | 0.00 | 0.35 | 0.07 | 82 | 1021.7 |
| 20260906175031 | 73 | 281 | 1.0 | 7.0 | 0.00 | 0.35 | 0.07 | 82 | 1021.7 |
| 20260906174519 | 73 | 279 | 3.0 | 8.0 | 0.00 | 0.35 | 0.07 | 82 | 1021.7 |
| 20260906174026 | 74 | 278 | 5.0 | 8.0 | 0.00 | 0.35 | 0.07 | 81 | 1021.6 |
| 20260906173535 | 74 | 300 | 3.0 | 9.0 | 0.00 | 0.35 | 0.07 | 81 | 1021.5 |
| 20260906173023 | 74 | 304 | 3.0 | 9.0 | 0.00 | 0.35 | 0.07 | 80 | 1021.5 |
| 20260906172531 | 74 | 298 | 4.0 | 8.0 | 0.00 | 0.35 | 0.07 | 79 | 1021.5 |
| 20260906172037 | 74 | 293 | 4.0 | 8.0 | 0.00 | 0.35 | 0.07 | 79 | 1021.4 |
| 20260906171545 | 74 | 284 | 1.0 | 8.0 | 0.00 | 0.35 | 0.07 | 79 | 1021.4 |
| 20260906171012 | 74 | 299 | 3.0 | 9.0 | 0.00 | 0.35 | 0.07 | 79 | 1021.4 |
| 20260906170520 | 74 | 300 | 5.0 | 11.0 | 0.00 | 0.35 | 0.07 | 79 | 1021.4 |
| 20260906170009 | 75 | 297 | 4.0 | 11.0 | 0.00 | 0.35 | 0.07 | 79 | 1021.4 |
| 20260906165517 | 75 | 282 | 4.0 | 8.0 | 0.00 | 0.35 | 0.07 | 79 | 1021.3 |
| 20260906165024 | 75 | 298 | 3.0 | 10.0 | 0.00 | 0.35 | 0.07 | 78 | 1021.4 |
| 20260906164534 | 75 | 291 | 5.0 | 10.0 | 0.00 | 0.35 | 0.07 | 78 | 1021.4 |
| 20260906164042 | 75 | 304 | 5.0 | 10.0 | 0.00 | 0.35 | 0.07 | 78 | 1021.4 |
| 20260906163510 | 75 | 298 | 6.0 | 12.0 | 0.00 | 0.35 | 0.07 | 78 | 1021.2 |
| 20260906163038 | 75 | 281 | 6.0 | 12.0 | 0.00 | 0.35 | 0.07 | 79 | 1021.2 |
| 20260906162526 | 75 | 327 | 5.0 | 13.0 | 0.00 | 0.35 | 0.07 | 79 | 1021.1 |
| 20260906162014 | 75 | 308 | 5.0 | 13.0 | 0.00 | 0.35 | 0.07 | 79 | 1021.1 |
| 20260906161543 | 75 | 254 | 6.0 | 12.0 | 0.00 | 0.35 | 0.07 | 79 | 1021.1 |
| 20260906161010 | 75 | 284 | 5.0 | 11.0 | 0.00 | 0.35 | 0.07 | 79 | 1021.1 |
| 20260906160519 | 74 | 273 | 4.0 | 11.0 | 0.00 | 0.35 | 0.07 | 80 | 1021.0 |
| 20260906160027 | 74 | 307 | 4.0 | 15.0 | 0.00 | 0.35 | 0.07 | 80 | 1020.9 |
| 20260906155514 | 75 | 305 | 5.0 | 12.0 | 0.00 | 0.35 | 0.07 | 78 | 1020.8 |
| 20260906155042 | 75 | 279 | 6.0 | 12.0 | 0.00 | 0.35 | 0.07 | 77 | 1020.8 |
| 20260906154530 | 76 | 291 | 4.0 | 12.0 | 0.00 | 0.35 | 0.07 | 77 | 1020.8 |
| 20260906154015 | 76 | 286 | 5.0 | 12.0 | 0.00 | 0.35 | 0.07 | 76 | 1020.8 |
| 20260906153523 | 76 | 326 | 4.0 | 11.0 | 0.00 | 0.35 | 0.07 | 77 | 1020.7 |
| 20260906153032 | 76 | 291 | 5.0 | 14.0 | 0.00 | 0.35 | 0.07 | 78 | 1020.7 |
| 20260906152517 | 75 | 274 | 5.0 | 14.0 | 0.00 | 0.35 | 0.07 | 78 | 1020.7 |
| 20260906152026 | 75 | 284 | 7.0 | 14.0 | 0.00 | 0.35 | 0.07 | 78 | 1020.5 |
| 20260906151514 | 75 | 283 | 5.0 | 14.0 | 0.00 | 0.35 | 0.07 | 78 | 1020.6 |
| 20260906151022 | 75 | 279 | 8.0 | 15.0 | 0.00 | 0.35 | 0.07 | 78 | 1020.7 |
| 20260906150510 | 75 | 20 | 9.0 | 15.0 | 0.00 | 0.35 | 0.07 | 78 | 1020.6 |
| 20260906150019 | 75 | 274 | 8.0 | 13.0 | 0.00 | 0.35 | 0.07 | 78 | 1020.5 |
| 20260906145509 | 75 | 287 | 7.0 | 15.0 | 0.00 | 0.35 | 0.07 | 78 | 1020.3 |
| 20260906131524 | 74 | 284 | 9.0 | 14.0 | 0.00 | 0.35 | 0.07 | 83 | 1019.7 |
| 20260906131032 | 75 | 284 | 7.0 | 14.0 | 0.00 | 0.35 | 0.07 | 83 | 1019.6 |
| 20260906130519 | 75 | 293 | 5.0 | 14.0 | 0.00 | 0.35 | 0.07 | 84 | 1019.7 |
| 20260906130028 | 75 | 298 | 7.0 | 14.0 | 0.00 | 0.35 | 0.07 | 82 | 1019.7 |
| 20260906125515 | 75 | 296 | 5.0 | 14.0 | 0.00 | 0.35 | 0.07 | 83 | 1019.7 |
| 20260906125045 | 75 | 293 | 6.0 | 14.0 | 0.00 | 0.35 | 0.07 | 83 | 1019.7 |
| 20260906124512 | 75 | 292 | 7.0 | 15.0 | 0.00 | 0.35 | 0.07 | 83 | 1019.6 |
| 20260906124017 | 75 | 289 | 9.0 | 15.0 | 0.00 | 0.35 | 0.07 | 80 | 1019.5 |
| 20260906123524 | 76 | 286 | 6.0 | 12.0 | 0.00 | 0.35 | 0.07 | 79 | 1019.4 |
| 20260906123033 | 77 | 355 | 4.0 | 11.0 | 0.00 | 0.35 | 0.07 | 79 | 1019.3 |
| 20260906122519 | 77 | 304 | 5.0 | 13.0 | 0.00 | 0.35 | 0.07 | 79 | 1019.3 |
| 20260906122024 | 77 | 315 | 4.0 | 13.0 | 0.00 | 0.35 | 0.07 | 79 | 1019.3 |
| 20260906121513 | 76 | 276 | 7.0 | 14.0 | 0.00 | 0.35 | 0.07 | 78 | 1019.3 |
| 20260906121022 | 77 | 271 | 6.0 | 14.0 | 0.00 | 0.35 | 0.07 | 76 | 1019.2 |
| 20260906120510 | 77 | 279 | 5.0 | 15.0 | 0.00 | 0.35 | 0.07 | 76 | 1019.2 |
| 20260906120017 | 77 | 5 | 6.0 | 15.0 | 0.00 | 0.35 | 0.07 | 77 | 1019.1 |
| 20260906115525 | 77 | 275 | 7.0 | 12.0 | 0.00 | 0.35 | 0.07 | 76 | 1019.1 |
| 20260906115013 | 77 | 267 | 7.0 | 12.0 | 0.00 | 0.35 | 0.07 | 76 | 1019.2 |
| 20260906114543 | 77 | 296 | 5.0 | 14.0 | 0.00 | 0.35 | 0.07 | 76 | 1019.2 |
| 20260906114009 | 78 | 294 | 5.0 | 14.0 | 0.00 | 0.35 | 0.07 | 75 | 1019.1 |
| 20260906113518 | 77 | 323 | 4.0 | 10.0 | 0.00 | 0.35 | 0.07 | 75 | 1019.2 |
| 20260906113047 | 78 | 312 | 4.0 | 13.0 | 0.00 | 0.35 | 0.07 | 74 | 1019.1 |
| 20260906112514 | 78 | 262 | 5.0 | 12.0 | 0.00 | 0.35 | 0.07 | 73 | 1019.0 |
| 20260906112023 | 78 | 298 | 5.0 | 11.0 | 0.00 | 0.35 | 0.07 | 73 | 1019.0 |
| 20260906111511 | 78 | 305 | 5.0 | 10.0 | 0.00 | 0.35 | 0.07 | 73 | 1019.0 |
| 20260906111018 | 79 | 321 | 4.0 | 12.0 | 0.00 | 0.35 | 0.07 | 73 | 1019.0 |
| 20260906110526 | 79 | 292 | 5.0 | 12.0 | 0.00 | 0.35 | 0.07 | 72 | 1019.0 |
| 20260906110013 | 78 | 314 | 4.0 | 13.0 | 0.00 | 0.35 | 0.07 | 72 | 1018.9 |
| 20260906105542 | 79 | 286 | 6.0 | 13.0 | 0.00 | 0.35 | 0.07 | 70 | 1018.8 |
| 20260906105028 | 79 | 315 | 5.0 | 11.0 | 0.00 | 0.35 | 0.07 | 69 | 1018.7 |
| 20260906104537 | 79 | 298 | 3.0 | 13.0 | 0.00 | 0.35 | 0.07 | 70 | 1018.7 |
| 20260906104024 | 79 | 302 | 5.0 | 12.0 | 0.00 | 0.35 | 0.07 | 69 | 1018.6 |
| 20260906103513 | 79 | 320 | 4.0 | 10.0 | 0.00 | 0.35 | 0.07 | 67 | 1018.6 |
| 20260906103020 | 80 | 294 | 3.0 | 9.0 | 0.00 | 0.35 | 0.07 | 64 | 1018.6 |
| 20260906102509 | 80 | 308 | 2.0 | 10.0 | 0.00 | 0.35 | 0.07 | 64 | 1018.7 |
| 20260906102015 | 80 | 306 | 5.0 | 10.0 | 0.00 | 0.35 | 0.07 | 64 | 1018.7 |
| 20260906101523 | 80 | 292 | 5.0 | 10.0 | 0.00 | 0.35 | 0.07 | 65 | 1018.8 |
| 20260906101012 | 79 | 332 | 3.0 | 8.0 | 0.00 | 0.35 | 0.07 | 62 | 1019.1 |
| 20260906100541 | 78 | 134 | 2.0 | 9.0 | 0.00 | 0.35 | 0.07 | 64 | 1019.2 |
| 20260906100049 | 77 | 99 | 4.0 | 13.0 | 0.00 | 0.35 | 0.07 | 67 | 1019.2 |
| 20260906095515 | 75 | 111 | 8.0 | 13.0 | 0.00 | 0.35 | 0.07 | 71 | 1019.0 |
| 20260906095022 | 74 | 109 | 4.0 | 7.0 | 0.00 | 0.35 | 0.07 | 71 | 1018.8 |
| 20260906094511 | 74 | 176 | 2.0 | 8.0 | 0.04 | 0.35 | 0.07 | 73 | 1018.8 |
| 20260906094017 | 74 | 223 | 3.0 | 14.0 | 0.04 | 0.35 | 0.07 | 76 | 1018.8 |
| 20260906093525 | 73 | 216 | 4.0 | 14.0 | 0.04 | 0.35 | 0.07 | 76 | 1018.9 |
| 20260906093014 | 73 | 198 | 4.0 | 12.0 | 0.04 | 0.35 | 0.07 | 78 | 1018.9 |
| 20260906092522 | 73 | 208 | 3.0 | 10.0 | 0.04 | 0.35 | 0.07 | 78 | 1018.7 |
| 20260906092011 | 73 | 24 | 0.0 | 4.0 | 0.04 | 0.35 | 0.07 | 77 | 1018.0 |
| 20260906091518 | 73 | 25 | 3.0 | 7.0 | 0.04 | 0.35 | 0.07 | 76 | 1017.9 |
| 20260906091026 | 73 | 36 | 2.0 | 7.0 | 0.04 | 0.35 | 0.07 | 76 | 1017.9 |
| 20260906090515 | 73 | 169 | 2.0 | 6.0 | 0.04 | 0.35 | 0.07 | 75 | 1018.1 |
| 20260906090021 | 73 | 167 | 3.0 | 12.0 | 0.04 | 0.35 | 0.07 | 76 | 1018.3 |
| 20260906085513 | 72 | 199 | 6.0 | 21.0 | 0.12 | 0.35 | 0.07 | 78 | 1018.5 |
| 20260906085020 | 71 | 219 | 11.0 | 21.0 | 0.31 | 0.35 | 0.07 | 82 | 1018.9 |
| 20260906084509 | 71 | 203 | 0.0 | 7.0 | 0.31 | 0.31 | 0.06 | 85 | 1019.0 |
| 20260906084037 | 71 | 197 | 2.0 | 7.0 | 0.31 | 0.31 | 0.06 | 85 | 1019.2 |
| 20260906083541 | 71 | 235 | 1.0 | 7.0 | 0.31 | 0.31 | 0.06 | 85 | 1018.8 |
| 20260906083013 | 71 | 225 | 1.0 | 8.0 | 0.31 | 0.31 | 0.06 | 84 | 1018.4 |
| 20260906082522 | 72 | 223 | 4.0 | 8.0 | 0.31 | 0.31 | 0.06 | 83 | 1017.6 |
| 20260906082009 | 72 | 83 | 2.0 | 6.0 | 0.31 | 0.31 | 0.06 | 82 | 1017.1 |
| 20260906081518 | 72 | 83 | 2.0 | 6.0 | 0.31 | 0.31 | 0.06 | 81 | 1017.1 |
| 20260906081023 | 72 | 84 | 0.0 | 9.0 | 0.31 | 0.31 | 0.06 | 79 | 1017.1 |
| 20260906080512 | 73 | 84 | 5.0 | 11.0 | 0.31 | 0.31 | 0.06 | 77 | 1017.4 |
| 20260906080018 | 74 | 80 | 4.0 | 11.0 | 0.31 | 0.31 | 0.06 | 75 | 1017.8 |
| 20260906075526 | 74 | 117 | 2.0 | 9.0 | 0.20 | 0.20 | 0.04 | 72 | 1018.4 |
| 20260906075035 | 74 | 150 | 4.0 | 9.0 | 0.00 | 0.00 | 0.01 | 69 | 1018.8 |
| 20260906074520 | 74 | 214 | 4.0 | 8.0 | 0.00 | 0.00 | 0.00 | 71 | 1018.5 |
| 20260906074028 | 74 | 237 | 0.0 | 1.0 | 0.00 | 0.00 | 0.00 | 71 | 1017.5 |
| 20260906073516 | 74 | 237 | 0.0 | 0.0 | 0.00 | 0.00 | 0.00 | 72 | 1017.5 |
| 20260906073023 | 74 | 237 | 0.0 | 2.0 | 0.00 | 0.00 | 0.00 | 72 | 1017.2 |
| 20260906072512 | 74 | 237 | 0.0 | 5.0 | 0.00 | 0.00 | 0.00 | 71 | 1016.8 |
| 20260906072019 | 74 | 237 | 3.0 | 5.0 | 0.00 | 0.00 | 0.00 | 70 | 1016.9 |
| 20260906071527 | 74 | 288 | 2.0 | 5.0 | 0.00 | 0.00 | 0.00 | 69 | 1016.9 |
| 20260906071035 | 74 | 82 | 0.0 | 4.0 | 0.00 | 0.00 | 0.00 | 68 | 1016.5 |
| 20260906070542 | 74 | 82 | 0.0 | 9.0 | 0.00 | 0.00 | 0.00 | 70 | 1016.6 |
| 20260906070008 | 74 | 82 | 4.0 | 10.0 | 0.00 | 0.00 | 0.00 | 71 | 1017.0 |
| 20260906065517 | 73 | 89 | 7.0 | 10.0 | 0.00 | 0.00 | 0.00 | 72 | 1017.0 |
| 20260906065046 | 73 | 84 | 4.0 | 9.0 | 0.00 | 0.00 | 0.00 | 73 | 1017.3 |
| 20260906064514 | 73 | 167 | 2.0 | 5.0 | 0.00 | 0.00 | 0.00 | 73 | 1017.0 |
| 20260906064022 | 73 | 255 | 0.0 | 3.0 | 0.00 | 0.00 | 0.00 | 73 | 1016.8 |
| 20260906063510 | 73 | 255 | 1.0 | 12.0 | 0.00 | 0.00 | 0.00 | 73 | 1017.1 |
| 20260906063037 | 73 | 255 | 0.0 | 12.0 | 0.00 | 0.00 | 0.00 | 73 | 1016.9 |
| 20260906062525 | 73 | 271 | 5.0 | 8.0 | 0.00 | 0.00 | 0.00 | 74 | 1016.9 |
| 20260906062012 | 73 | 77 | 0.0 | 4.0 | 0.00 | 0.00 | 0.00 | 73 | 1016.3 |
| 20260906061519 | 72 | 77 | 2.0 | 4.0 | 0.00 | 0.00 | 0.00 | 73 | 1016.4 |
| 20260906061024 | 72 | 77 | 0.0 | 5.0 | 0.00 | 0.00 | 0.00 | 75 | 1016.5 |
| 20260906060512 | 71 | 80 | 0.0 | 5.0 | 0.00 | 0.00 | 0.00 | 77 | 1016.3 |
| 20260906060021 | 70 | 81 | 1.0 | 4.0 | 0.00 | 0.00 | 0.00 | 80 | 1016.9 |
| 20260906055509 | 70 | 81 | 0.0 | 5.0 | 0.00 | 0.00 | 0.00 | 82 | 1016.8 |
| 20260906055017 | 70 | 81 | 0.0 | 6.0 | 0.00 | 0.00 | 0.00 | 83 | 1016.5 |
| 20260906054525 | 69 | 82 | 5.0 | 6.0 | 0.00 | 0.00 | 0.00 | 88 | 1016.3 |
| 20260906054013 | 68 | 85 | 4.0 | 6.0 | 0.00 | 0.00 | 0.00 | 92 | 1016.6 |
| 20260906053542 | 67 | 88 | 4.0 | 6.0 | 0.00 | 0.00 | 0.00 | 95 | 1016.7 |
| 20260906053030 | 67 | 98 | 3.0 | 6.0 | 0.00 | 0.00 | 0.00 | 97 | 1017.0 |
| 20260906052517 | 66 | 98 | 3.0 | 7.0 | 0.00 | 0.00 | 0.00 | 97 | 1016.9 |
| 20260906052026 | 66 | 101 | 3.0 | 7.0 | 0.00 | 0.00 | 0.00 | 97 | 1017.1 |
| 20260906051513 | 66 | 195 | 3.0 | 6.0 | 0.00 | 0.00 | 0.00 | 98 | 1017.3 |
| 20260906051018 | 66 | 95 | 4.0 | 6.0 | 0.00 | 0.00 | 0.00 | 98 | 1016.5 |
| 20260906050526 | 66 | 106 | 1.0 | 4.0 | 0.00 | 0.00 | 0.00 | 98 | 1016.8 |
| 20260906050012 | 66 | 106 | 0.0 | 0.0 | 0.00 | 0.00 | 0.00 | 98 | 1016.4 |
| 20260906045519 | 66 | 106 | 0.0 | 3.0 | 0.00 | 0.00 | 0.00 | 98 | 1016.5 |
| 20260906045024 | 66 | 106 | 1.0 | 3.0 | 0.00 | 0.00 | 0.00 | 97 | 1016.2 |
| 20260906044512 | 66 | 106 | 0.0 | 0.0 | 0.00 | 0.00 | 0.00 | 97 | 1016.2 |
| 20260906044021 | 66 | 106 | 0.0 | 3.0 | 0.00 | 0.00 | 0.00 | 97 | 1016.3 |
| 20260906043509 | 66 | 106 | 2.0 | 3.0 | 0.00 | 0.00 | 0.00 | 97 | 1016.1 |
| 20260906043037 | 66 | 106 | 0.0 | 2.0 | 0.00 | 0.00 | 0.00 | 97 | 1016.4 |
| 20260906042544 | 66 | 106 | 0.0 | 0.0 | 0.00 | 0.00 | 0.00 | 97 | 1016.6 |
| 20260906042011 | 66 | 106 | 0.0 | 0.0 | 0.00 | 0.00 | 0.00 | 97 | 1016.7 |
| 20260906041519 | 66 | 106 | 0.0 | 0.0 | 0.00 | 0.00 | 0.00 | 97 | 1016.7 |
| 20260906041047 | 66 | 106 | 0.0 | 0.0 | 0.00 | 0.00 | 0.00 | 97 | 1016.5 |
| 20260906040514 | 66 | 106 | 0.0 | 0.0 | 0.00 | 0.00 | 0.00 | 97 | 1016.6 |
| 20260906040023 | 66 | 106 | 0.0 | 0.0 | 0.00 | 0.00 | 0.00 | 97 | 1016.6 |
| 20260906035511 | 66 | 106 | 0.0 | 0.0 | 0.00 | 0.00 | 0.00 | 97 | 1016.5 |
| 20260906035019 | 66 | 106 | 0.0 | 0.0 | 0.00 | 0.00 | 0.00 | 97 | 1016.5 |
| 20260906034528 | 66 | 106 | 0.0 | 0.0 | 0.00 | 0.00 | 0.00 | 96 | 1016.4 |
| 20260906034016 | 66 | 106 | 0.0 | 0.0 | 0.00 | 0.00 | 0.00 | 96 | 1016.3 |
| 20260906033524 | 67 | 106 | 0.0 | 2.0 | 0.00 | 0.00 | 0.00 | 96 | 1016.4 |
| 20260906033009 | 67 | 106 | 1.0 | 2.0 | 0.00 | 0.00 | 0.00 | 96 | 1016.4 |
| 20260906032538 | 67 | 106 | 0.0 | 0.0 | 0.00 | 0.00 | 0.00 | 96 | 1016.4 |
| 20260906032026 | 67 | 106 | 0.0 | 1.0 | 0.00 | 0.00 | 0.00 | 95 | 1016.3 |
| 20260906031534 | 67 | 106 | 0.0 | 1.0 | 0.00 | 0.00 | 0.00 | 95 | 1016.5 |
| 20260906031021 | 67 | 106 | 0.0 | 0.0 | 0.00 | 0.00 | 0.00 | 95 | 1016.4 |
| 20260906030510 | 67 | 106 | 0.0 | 0.0 | 0.00 | 0.00 | 0.00 | 95 | 1016.3 |
| 20260906030017 | 67 | 106 | 0.0 | 0.0 | 0.00 | 0.00 | 0.00 | 95 | 1016.3 |
| 20260906025526 | 67 | 106 | 0.0 | 0.0 | 0.00 | 0.00 | 0.00 | 95 | 1016.4 |
| 20260906025014 | 67 | 106 | 0.0 | 0.0 | 0.00 | 0.00 | 0.00 | 95 | 1016.5 |
| 20260906024522 | 67 | 106 | 0.0 | 0.0 | 0.00 | 0.00 | 0.00 | 94 | 1016.6 |
| 20260906024010 | 67 | 106 | 0.0 | 0.0 | 0.00 | 0.00 | 0.00 | 94 | 1016.7 |
| 20260906023519 | 68 | 106 | 0.0 | 0.0 | 0.00 | 0.00 | 0.00 | 94 | 1016.8 |
| 20260906023027 | 68 | 106 | 0.0 | 0.0 | 0.00 | 0.00 | 0.00 | 94 | 1016.9 |
| 20260906022536 | 68 | 106 | 0.0 | 0.0 | 0.00 | 0.00 | 0.00 | 94 | 1016.8 |
| 20260906022023 | 68 | 106 | 0.0 | 0.0 | 0.00 | 0.00 | 0.00 | 94 | 1017.0 |
| 20260906021512 | 68 | 106 | 0.0 | 0.0 | 0.00 | 0.00 | 0.00 | 94 | 1017.0 |
| 20260906021041 | 68 | 106 | 0.0 | 0.0 | 0.00 | 0.00 | 0.00 | 94 | 1016.9 |
| 20260906020527 | 68 | 106 | 0.0 | 0.0 | 0.00 | 0.00 | 0.00 | 94 | 1017.1 |
| 20260906020014 | 68 | 106 | 0.0 | 0.0 | 0.00 | 0.00 | 0.00 | 94 | 1017.2 |
| 20260906015523 | 68 | 106 | 0.0 | 1.0 | 0.00 | 0.00 | 0.00 | 94 | 1017.3 |
| 20260906015010 | 69 | 106 | 0.0 | 3.0 | 0.00 | 0.00 | 0.00 | 93 | 1017.2 |
| 20260906014518 | 69 | 106 | 1.0 | 3.0 | 0.00 | 0.00 | 0.00 | 93 | 1017.3 |
| 20260906014027 | 69 | 106 | 0.0 | 0.0 | 0.00 | 0.00 | 0.00 | 93 | 1017.4 |
| 20260906013515 | 69 | 106 | 0.0 | 0.0 | 0.00 | 0.00 | 0.00 | 92 | 1017.5 |
| 20260906013042 | 69 | 106 | 0.0 | 0.0 | 0.00 | 0.00 | 0.00 | 92 | 1017.4 |
| 20260906012531 | 69 | 106 | 0.0 | 0.0 | 0.00 | 0.00 | 0.00 | 92 | 1017.5 |
| 20260906012015 | 70 | 106 | 0.0 | 0.0 | 0.00 | 0.00 | 0.00 | 92 | 1017.5 |
| 20260906011523 | 70 | 106 | 0.0 | 0.0 | 0.00 | 0.00 | 0.00 | 92 | 1017.5 |
| 20260906011012 | 70 | 106 | 0.0 | 0.0 | 0.00 | 0.00 | 0.00 | 91 | 1017.4 |
| 20260906010520 | 70 | 106 | 0.0 | 0.0 | 0.00 | 0.00 | 0.00 | 91 | 1017.5 |
| 20260906010010 | 70 | 106 | 0.0 | 0.0 | 0.00 | 0.00 | 0.00 | 91 | 1017.4 |
| 20260906005519 | 70 | 106 | 0.0 | 0.0 | 0.00 | 0.00 | 0.00 | 91 | 1017.5 |
| 20260906005027 | 70 | 106 | 0.0 | 0.0 | 0.00 | 0.00 | 0.00 | 91 | 1017.6 |
| 20260906004515 | 70 | 106 | 0.0 | 0.0 | 0.00 | 0.00 | 0.00 | 91 | 1017.6 |
| 20260906004022 | 71 | 106 | 0.0 | 0.0 | 0.00 | 0.00 | 0.00 | 91 | 1017.6 |
| 20260906003529 | 71 | 106 | 0.0 | 0.0 | 0.00 | 0.00 | 0.00 | 91 | 1017.8 |
| 20260906003015 | 71 | 106 | 0.0 | 0.0 | 0.00 | 0.00 | 0.00 | 91 | 1017.9 |
| 20260906002523 | 71 | 106 | 0.0 | 0.0 | 0.00 | 0.00 | 0.00 | 91 | 1017.9 |
| 20260906002011 | 71 | 106 | 0.0 | 0.0 | 0.00 | 0.00 | 0.00 | 90 | 1018.0 |
| 20260906001518 | 71 | 106 | 0.0 | 0.0 | 0.00 | 0.00 | 0.00 | 90 | 1017.9 |
| 20260906001041 | 71 | 106 | 0.0 | 0.0 | 0.00 | 0.00 | 0.00 | 90 | 1017.9 |
| 20260906000513 | 71 | 106 | 0.0 | 0.0 | 0.00 | 0.00 | 0.00 | 90 | 1017.9 |
| 20260906000020 | 72 | 106 | 0.0 | 0.0 | 0.00 | 0.00 | 0.00 | 90 | 1018.0 |
| 20260905235524 | 72 | 106 | 0.0 | 0.0 | 0.00 | 0.00 | 0.00 | 90 | 1018.1 |
| 20260905235032 | 72 | 106 | 0.0 | 0.0 | 0.00 | 0.00 | 0.00 | 90 | 1018.2 |
| 20260905234519 | 72 | 106 | 0.0 | 0.0 | 0.00 | 0.00 | 0.00 | 90 | 1018.2 |
| 20260905234026 | 72 | 106 | 0.0 | 0.0 | 0.00 | 0.00 | 0.00 | 90 | 1018.1 |
| 20260905233514 | 72 | 106 | 0.0 | 0.0 | 0.00 | 0.00 | 0.00 | 90 | 1018.2 |
| 20260905233023 | 72 | 106 | 0.0 | 0.0 | 0.00 | 0.00 | 0.00 | 90 | 1018.3 |
| 20260905232531 | 72 | 106 | 0.0 | 0.0 | 0.00 | 0.00 | 0.00 | 90 | 1018.4 |
| 20260905232017 | 72 | 106 | 0.0 | 0.0 | 0.00 | 0.00 | 0.00 | 90 | 1018.4 |
| 20260905231509 | 72 | 106 | 0.0 | 0.0 | 0.00 | 0.00 | 0.00 | 90 | 1018.5 |
| 20260905231034 | 72 | 106 | 0.0 | 0.0 | 0.00 | 0.00 | 0.00 | 90 | 1018.5 |
| 20260905230522 | 72 | 106 | 0.0 | 3.0 | 0.00 | 0.00 | 0.00 | 90 | 1018.5 |
| 20260905230012 | 72 | 106 | 0.0 | 3.0 | 0.00 | 0.00 | 0.00 | 90 | 1018.7 |
| 20260905225520 | 72 | 106 | 0.0 | 4.0 | 0.00 | 0.00 | 0.00 | 91 | 1018.6 |
| 20260905225028 | 72 | 106 | 0.0 | 4.0 | 0.00 | 0.00 | 0.00 | 91 | 1018.6 |
| 20260905224515 | 72 | 106 | 1.0 | 3.0 | 0.00 | 0.00 | 0.00 | 92 | 1018.7 |
| 20260905224019 | 72 | 106 | 1.0 | 3.0 | 0.00 | 0.00 | 0.00 | 92 | 1018.9 |
| 20260905223527 | 72 | 106 | 0.0 | 0.0 | 0.00 | 0.00 | 0.00 | 92 | 1018.9 |
| 20260905223016 | 72 | 106 | 0.0 | 2.0 | 0.00 | 0.00 | 0.00 | 93 | 1019.1 |
| 20260905222523 | 72 | 106 | 0.0 | 2.0 | 0.00 | 0.00 | 0.00 | 93 | 1019.2 |
| 20260905222011 | 72 | 106 | 0.0 | 0.0 | 0.00 | 0.00 | 0.00 | 93 | 1019.2 |
| 20260905221519 | 72 | 106 | 0.0 | 0.0 | 0.00 | 0.00 | 0.00 | 93 | 1019.1 |
| 20260905221027 | 72 | 106 | 0.0 | 0.0 | 0.00 | 0.00 | 0.00 | 93 | 1019.6 |
| 20260905220515 | 72 | 106 | 0.0 | 2.0 | 0.00 | 0.00 | 0.00 | 93 | 1019.8 |
| 20260905220024 | 72 | 106 | 1.0 | 4.0 | 0.00 | 0.00 | 0.00 | 93 | 1019.8 |
| 20260905215513 | 72 | 106 | 1.0 | 6.0 | 0.00 | 0.00 | 0.00 | 93 | 1019.8 |
| 20260905215016 | 72 | 106 | 1.0 | 6.0 | 0.00 | 0.00 | 0.00 | 94 | 1019.6 |
| 20260905214544 | 72 | 106 | 1.0 | 4.0 | 0.00 | 0.00 | 0.00 | 94 | 1019.6 |
| 20260905214011 | 72 | 106 | 1.0 | 7.0 | 0.00 | 0.00 | 0.00 | 94 | 1019.3 |
| 20260905213518 | 72 | 106 | 1.0 | 7.0 | 0.00 | 0.00 | 0.00 | 93 | 1019.5 |
| 20260905213026 | 72 | 84 | 3.0 | 5.0 | 0.00 | 0.00 | 0.00 | 93 | 1019.2 |
| 20260905212515 | 72 | 134 | 0.0 | 0.0 | 0.00 | 0.00 | 0.00 | 93 | 1019.5 |
| 20260905212043 | 72 | 134 | 0.0 | 0.0 | 0.00 | 0.00 | 0.00 | 93 | 1019.1 |
| 20260905211510 | 72 | 134 | 0.0 | 0.0 | 0.00 | 0.00 | 0.00 | 93 | 1019.1 |
| 20260905211036 | 72 | 134 | 0.0 | 2.0 | 0.00 | 0.00 | 0.00 | 93 | 1019.5 |
| 20260905210522 | 72 | 134 | 0.0 | 4.0 | 0.00 | 0.00 | 0.00 | 93 | 1019.8 |
| 20260905210009 | 72 | 134 | 3.0 | 5.0 | 0.00 | 0.00 | 0.00 | 93 | 1019.8 |
| 20260905205517 | 72 | 213 | 1.0 | 4.0 | 0.00 | 0.00 | 0.00 | 93 | 1019.6 |
| 20260905205025 | 72 | 260 | 1.0 | 8.0 | 0.00 | 0.00 | 0.00 | 93 | 1019.4 |
| 20260905204511 | 72 | 261 | 3.0 | 8.0 | 0.00 | 0.00 | 0.00 | 93 | 1019.6 |
| 20260905204016 | 72 | 123 | 2.0 | 4.0 | 0.00 | 0.00 | 0.00 | 92 | 1019.9 |
| 20260905203525 | 72 | 113 | 1.0 | 6.0 | 0.00 | 0.00 | 0.00 | 92 | 1020.4 |
| 20260905203013 | 72 | 109 | 2.0 | 6.0 | 0.00 | 0.00 | 0.00 | 92 | 1020.4 |
| 20260905202521 | 72 | 251 | 0.0 | 9.0 | 0.00 | 0.00 | 0.00 | 92 | 1020.3 |
| 20260905202049 | 72 | 251 | 1.0 | 9.0 | 0.00 | 0.00 | 0.00 | 92 | 1020.0 |
| 20260905201516 | 72 | 261 | 4.0 | 6.0 | 0.00 | 0.00 | 0.00 | 91 | 1020.2 |
| 20260905201024 | 72 | 263 | 1.0 | 4.0 | 0.00 | 0.00 | 0.00 | 91 | 1020.3 |
| 20260905200513 | 72 | 261 | 2.0 | 4.0 | 0.00 | 0.00 | 0.00 | 91 | 1020.4 |
| 20260905200041 | 72 | 258 | 1.0 | 6.0 | 0.00 | 0.00 | 0.00 | 90 | 1020.4 |
| 20260905195509 | 72 | 258 | 0.0 | 10.0 | 0.00 | 0.00 | 0.00 | 90 | 1019.9 |
| 20260905195014 | 72 | 263 | 2.0 | 17.0 | 0.00 | 0.00 | 0.00 | 89 | 1019.6 |
| 20260905194522 | 72 | 262 | 4.0 | 17.0 | 0.00 | 0.00 | 0.00 | 89 | 1018.9 |
| 20260905194010 | 73 | 250 | 7.0 | 18.0 | 0.00 | 0.00 | 0.00 | 89 | 1019.1 |
| 20260905193518 | 72 | 246 | 12.0 | 18.0 | 0.00 | 0.00 | 0.00 | 89 | 1018.8 |
| 20260905193026 | 72 | 115 | 0.0 | 4.0 | 0.00 | 0.00 | 0.00 | 89 | 1017.7 |
| 20260905192515 | 72 | 115 | 0.0 | 6.0 | 0.00 | 0.00 | 0.00 | 89 | 1017.5 |
| 20260905192043 | 72 | 115 | 1.0 | 6.0 | 0.00 | 0.00 | 0.00 | 89 | 1017.3 |
| 20260905191509 | 72 | 117 | 3.0 | 8.0 | 0.00 | 0.00 | 0.00 | 89 | 1017.2 |
| 20260905191014 | 72 | 96 | 3.0 | 9.0 | 0.00 | 0.00 | 0.00 | 88 | 1017.1 |
| 20260905190522 | 72 | 82 | 2.0 | 10.0 | 0.00 | 0.00 | 0.00 | 88 | 1017.0 |
| 20260905190009 | 72 | 66 | 4.0 | 12.0 | 0.00 | 0.00 | 0.00 | 88 | 1016.9 |
| 20260905185538 | 73 | 102 | 5.0 | 12.0 | 0.00 | 0.00 | 0.00 | 87 | 1017.2 |
| 20260905185025 | 73 | 54 | 4.0 | 9.0 | 0.00 | 0.00 | 0.00 | 87 | 1017.2 |
| 20260905184512 | 73 | 84 | 3.0 | 10.0 | 0.00 | 0.00 | 0.00 | 87 | 1017.3 |
| 20260905184021 | 73 | 88 | 4.0 | 11.0 | 0.00 | 0.00 | 0.00 | 86 | 1017.2 |
| 20260905183509 | 73 | 45 | 4.0 | 11.0 | 0.00 | 0.00 | 0.00 | 86 | 1017.1 |